Flag for Ecuador Weather past 2 weeks in Quito, Ecuador

Now
54 °F

Passing clouds.


Feels Like: 54 °F
Forecast: 50 / 62 °F
Wind: 2 mph from West

Location: Latacunga Airport

Current Time: May 4, 2015 at 3:07:38 AM

Latest Report: May 4, 2015 at 2:00 AM


Visibility: N/A

Pressure: 30.42 "Hg

Humidity: 100%

Dew point: 54 °F

Location of QuitoLocation

Historic Weather in Quito — Graph

°F

Quito temperature yesterday

Maximum temperature yesterday: 72 °F (at 2:00 PM)
Minimum temperature yesterday: 52 °F (at 2:00 AM)
Average temperature yesterday: 58 °F

Past Weeks' High & Low Weather Summary

 TemperatureHumidityPressure
High72 °F (May 2, 3:00 PM)100% (Apr 20, 1:00 AM)30.51 "Hg (Apr 20, 1:00 AM)
Low39 °F (May 2, 7:00 AM)41% (Apr 22, 10:00 AM)30.27 "Hg (Apr 20, 4:00 PM)
Average56 °F82%30.40 "Hg
* Reported Apr 19 2:00 AM — May 4 2:00 AM, Quito, Weather by CustomWeather, © 2015

Note: Actual official high and low records may vary slightly from our data, if they occured in-between our weather recording intervals... More about our weather records

Advertising

Quito weather history for previous 24 hours

 ConditionsComfort  
Time TempWeatherWind HumidityBarometerVisibility
2:00 AM
Mon, May 4
54 °FPassing clouds.2 mph100%30.42 "HgN/A
1:00 AM54 °FPassing clouds.2 mph94%30.45 "HgN/A
12:00 AM54 °FMostly cloudy.7 mph94%30.45 "HgN/A
11:00 PM
Sun, May 3
54 °FLight rain. Mostly cloudy.9 mph100%30.45 "Hg4 mi
10:00 PM54 °FLight rain. Low clouds.5 mph100%30.45 "HgN/A
9:00 PM55 °FLight rain. Overcast.7 mph94%30.42 "Hg5 mi
8:00 PM57 °FLight rain. Overcast.2 mph88%30.39 "HgN/A
7:00 PM55 °FPassing clouds.5 mph94%30.36 "HgN/A
5:00 PM55 °FScattered showers. Partly sunny.5 mph94%30.33 "HgN/A
4:00 PM59 °FThunderstorms. Partly sunny.12 mph82%30.33 "HgN/A
2:00 PM72 °FScattered showers. Scattered clouds.14 mph41%30.33 "HgN/A
1:00 PM70 °FScattered clouds.12 mph46%30.33 "HgN/A
12:00 PM68 °FScattered clouds.9 mph49%30.39 "HgN/A
11:00 AM64 °FScattered clouds.9 mph56%30.42 "HgN/A
10:00 AM64 °FScattered clouds.5 mph60%30.42 "HgN/A
9:00 AM61 °FScattered clouds.6 mph77%30.42 "HgN/A
6:00 AM52 °FPartly cloudy.No wind94%30.36 "HgN/A
5:00 AM52 °FPartly cloudy.3 mph94%30.33 "HgN/A
4:00 AM52 °FPartly cloudy.7 mph94%30.30 "HgN/A
3:00 AM52 °FPartly cloudy.9 mph94%30.33 "HgN/A
Weather by CustomWeather, © 2015

See weather overviewHow to use our weather pages